Regional Weather Roundup
Issued by NWS Wakefield, VA

Home | Current Version | Previous Version | Graphics & Text | Print | Product List | Glossary On
Versions: 1 2 3 4 5 6 7 8 9 10 11 12 13 14 15 16 17 18 19 20 21 22 23 24 25 26 27 28
000
ASUS41 KAKQ 230110
RWRAKQ

REGIONAL WEATHER ROUNDUP
NATIONAL WEATHER SERVICE WAKEFIELD VA
900 PM EDT TUE APR 22 2014

Note: "fair" indicates few or no clouds below 12,000 feet with no
significant weather and/or obstructions to visibility. * = Denotes
station may not report precipitation (e.g., rain,snow,etc.),
thunder or fog.

VAZ042-051-052>054-056-230200-
NORTHERN VIRGINIA

CITY           SKY/WX    TMP DP  RH WIND       PRES   REMARKS
WASH NATIONAL  MOCLDY    62  57  83 SE5       29.61R
DULLES         MOCLDY    63  48  59 N16G25    29.62R
FORT BELVOIR   PTCLDY    59  59 100 S2        29.62R FOG
QUANTICO       PTCLDY    64  55  72 CALM      29.62R
FREDERICKSBRG* PTCLDY    68  55  62 CALM      29.61R
STAFFORD*      MOCLDY    63  55  75 CALM      29.65R
WARRENTON      CLEAR     54  53  98 CALM      29.62R
CULPEPER*      PTCLDY    61  54  77 CALM      29.63R
MANASSAS*      PTCLDY    55  54  94 CALM      29.62R
LEESBURG*      PTCLDY    61  54  77 N8        29.65R
WINCHESTER     MOCLDY    61  50  67 N6        29.65R
$$

VAZ048-049-060>072-079>083-230200-
CENTRAL AND SOUTH CENTRAL VIRGINIA...AND NORTH CENTRAL NORTH CAROLINA

CITY           SKY/WX    TMP DP  RH WIND       PRES   REMARKS
RICHMOND       CLOUDY    67  53  61 SW5       29.61R
CHESTERFIELD*  NOT AVBL
HANOVER        MOCLDY    63  54  72 CALM      29.62R
TAPPAHANNOCK*  MOCLDY    65  51  59 CALM      29.60R
CHARLOTTSVILLE MOCLDY    64  53  67 W6        29.63R
ORANGE*        CLOUDY    70  46  43 S12       29.64R
LOUISA*        MOCLDY    66  50  55 W5        29.61R
FARMVILLE*     MOCLDY    68  50  52 CALM      29.62R
SOUTH HILL*    CLOUDY    66  59  77 SW6       29.70S
ROANOKE RAPIDS CLOUDY    61  50  67 W5        29.65S
RALEIGH        CLOUDY    68  53  58 W6        29.69R
$$

VAZ088>098-230200-
SOUTHEAST VIRGINIA

CITY           SKY/WX    TMP DP  RH WIND       PRES   REMARKS
NORFOLK        CLOUDY    65  51  60 CALM      29.62R
VIRGINIA BEACH CLOUDY    68  49  50 CALM      29.62R
NORFOLK NAVAL  CLOUDY    69  49  48 CALM      29.63R
WEST POINT*    CLOUDY    66  59  79 CALM      29.62S
NEWPORT NEWS   CLOUDY    70  54  56 CALM      29.62R
LANGLEY AFB    CLOUDY    65  53  63 E2        29.62R
FORT EUSTIS    CLOUDY    72  56  57 VRB1      29.60S
WILLIAMSBURG*  CLOUDY    66  59  77 CALM      29.62S
FRANKLIN*      CLOUDY    70  55  60 CALM      29.63S
WAKEFIELD      CLOUDY    70  52  52 SW5       29.63R
$$

VAZ020-022-025-037-045-230200-
WESTERN AND SOUTHWEST VIRGINIA

CITY           SKY/WX    TMP DP  RH WIND       PRES   REMARKS
STAUNTON*      MOCLDY    59  47  63 SW6       29.68R
HOT SPRINGS VA NOT AVBL
LYNCHBURG      MOCLDY    69  51  52 SW5       29.67R
DANVILLE       MOCLDY    66  57  72 SW8       29.68S
MARTINSVILLE   MOCLDY    61  53  75 W3        29.73R
ROANOKE        MOCLDY    67  51  56 W8        29.70R
BLACKSBURG     CLEAR     61  54  77 CALM      29.76R
DUBLIN*        CLEAR     60  51  73 W7        29.75R
MARION*        MOCLDY    58  56  90 W13G18    29.81R
HILLSVILLE*    PTCLDY    61  50  67 W9        29.80R
RICHLANDS*     MOCLDY    65  51  60 W8        29.80R
WISE*          CLEAR     63  39  42 NW13G20   29.84R
ABINGDON*      CLOUDY    64  57  80 W7        29.81R
$$

MDZ021>025-VAZ099-100-230200-
SOUTHERN MARYLAND AND THE DELMARVA PENINSULA

CITY           SKY/WX    TMP DP  RH WIND       PRES   REMARKS
PATUXENT RIVER MOCLDY    59  50  72 CALM      29.61R
BAY BRIDGE APT MOCLDY    59  55  88 CALM      29.61R
LEONARDTOWN    MOCLDY    61  50  67 CALM      29.62R
DOVER          CLOUDY    59  52  77 N9        29.60R
GEORGETOWN     CLOUDY    65  54  67 CALM      29.62R
EASTON         CLOUDY    64  63  94 CALM      29.64R
CAMBRIDGE      CLOUDY    63  54  72 CALM      29.61S
SALISBURY      CLOUDY    66  53  63 CALM      29.61R
OCEAN CITY     CLOUDY    57  52  83 CALM      29.61R
WALLOPS ISLAND CLOUDY    59  53  80 S5        29.62R
ACCOMACK*      CLOUDY    61  55  82 E3        29.61R
$$

NCZ012>017-030>032-230200-
EASTERN NORTH CAROLINA

CITY           SKY/WX    TMP DP  RH WIND       PRES   REMARKS
ELIZABETH CITY CLOUDY    70  54  56 SW7       29.63R
AHOSKIE*       CLOUDY    66  55  67 CALM      29.66R
EDENTON*       CLOUDY    73  54  51 NW6       29.65R
CURRITUCK*     CLOUDY    71  51  49 S3        29.63R
KILL DEVIL HLS MOCLDY    66  51  58 SW6       29.63R
MANTEO         MOCLDY    64  51  64 S7        29.64S
CAPE HATTERAS  PTCLDY    60  32  34 SW12      29.68R
GOLDSBORO      CLOUDY    74  54  49 W7        29.67R
WASHINGTON     MOCLDY    73  52  47 SW5       29.65R
GREENVILLE     CLOUDY    73  54  49 NW3       29.70R
NEW BERN       MOCLDY    70  54  56 SW8       29.68R
WILMINGTON     MOCLDY    69  57  65 SW9       29.70R
$$

VAZ048-230200-
ELSEWHERE

CITY           SKY/WX    TMP DP  RH WIND       PRES   REMARKS
HARRISBURG PA  PTCLDY    54  51  90 CALM      29.60R
BALTIMORE      TSTM      64  50  60 N10G25    29.62R
ANNAPOLIS      PTCLDY    59  56  89 CALM      29.60R
ANDREWS AFB    PTCLDY    57  57  99 CALM      29.61R
WILMINGTON DE  MOCLDY    59  47  64 NW7       29.59F
PHILADELPHIA   MOCLDY    60  47  61 N8        29.57F
WILDWOOD NJ*   CLOUDY    63  52  67 W5        29.62R
ATLANTIC CITY  CLOUDY    64  53  67 W21G28    29.61R
HENDERSON NC   CLOUDY    64  55  72 SW5       29.67S
GREENSBORO     MOCLDY    64  55  72 W8        29.72R
ROCKY MOUNT    CLOUDY    70  54  56 W3        29.67R
FAYETTEVILLE   CLOUDY    69  56  62 W8        29.71R
CHARLOTTE      MOCLDY    64  58  80 S3        29.75S
$$

VAZ100-230200-
MARINE

STATION/POSITION TIME  TEMP    WIND        PRES    WAVE   SWELL
                       AIR SEA DIR/SP/G            HT/PER HT/PER
                 (UTC) (F)     (DEG/KT/KT) (MB)    (FT/S) (FT/S)
44066 TX TWR #4  0100   49 46  210/ 12/ 16 1001.1F   5/ 9   5/ 9
CAPE MAY NJ      0100   57 55  280/  3/  3 1002.5R
LEWES DE         0100   65 51  240/  4/  5 1002.0R
15NM E FENWICK I 0100   50 48              1002.8R   4/ 9
OCEAN-CITY-INLET 0100   53 51  200/  4/  5 1002.3R
WACHAPREAGUE VA  0100   61 62   CALM  /  1 1002.1F
THOMAS POINT MD  0100   66 53  250/  7/  7 1003.0R
GOOSES REEF MD   0100   58     200/  2/  4   N/A
COVE POINT MD    0100   59     340/  4/  4 1002.3R
SOLOMONS ISLAND  0100      56                N/A
BISHOPS HEAD MD  0100   62 60   60/  3/  3 1002.1R
PINEY POINT MD   0100          140/  2/  3   N/A
POTOMAC MD       0100   58      CALM  /  2 1001.6R
CAMBRIDGE MD     0100   62 57   CALM  /  1 1002.0R
LEWISETTA VA     0100   65 57  170/  1/  1 1002.1R
RAPPAHANNOCK LGT 0100           80/  5/  5 1002.8R
STINGRAY PT      0100   60     220/  2/  6 1002.7S
YORK RVR RNG VA  0100   62     170/  2/  3 1002.0S
YORKTOWN VA      0100   67 57   CALM  /  2 1002.4S
JAMESTOWN VA     0100   67      CALM  /  2   N/A
DOMINION TERM VA 0100   68      CALM  /  1 1002.8R
KIPTOPEKE VA     0100      55   70/  4/  5   N/A
CHES BAY BRIDGE  0100   63 55  190/  2/  3 1002.7R
CAPE HENRY VA    0100   67     340/  2/  2   N/A
CHESAPEAKE LGHT  0000   66     260/  7/  8 1003.0R
WILLOUBY STN VA  0100   68      10/  3/  3 1002.1R
S CRANEY ISL VA  0100          100/  1/  2 1002.9S
CAPE HENRY BUOY  0100      48                N/A     3/ 8
1ST LANDING BUOY 0100      52                N/A     3/ 9   3/ 9
64NM E OF VA BCH 0100   54 49  210/ 12/ 14 1002.7S   4/ 8   3/ 8
DUCK PIER NC     0100   67 48  200/ 12/ 17 1002.2R
44100 DUCK FRF   0100      50                N/A     3/ 8   2/11
44056 DUCK FRF   0100      52                N/A     3/ 9
OREGON INLET NC  0100   62 59  200/ 14/ 16 1003.7S
HATTERAS NC      0100   63 57  220/ 11/ 18 1005.0R
DIAMOND SHLS NC  0100   73 76  240/ 21/ 27 1004.4R   5/ 8   3/ 8
CAPE LOOKOUT NC  0000   65     220/  9/ 13 1005.3F
FRYING PAN SHLS  0100   69 67  230/ 17/ 21 1006.3S   4/ 5   2/ 8
$$



USA.gov is the U.S. government's official web portal to all federal, state and local government web resources and services.